sat.trackr.live / text

‹ back to catalog

STARLINK-32123

NORAD 60284 · 2024-132G

PAYLOAD ACTIVE UNKNOWN

§ Identity

Operator
Country
US
Launch date
2024-07-28
Launch site
AFETR
Launch vehicle
Mass (kg)
RCS (m²)

Purposes: comms

External: N2YO · Heavens-Above · Gunter

§ Orbital elements

Epoch: 2026-09-21T03:06:39.222432Z

Period
93.85 min
Inclination
53.1588°
Eccentricity
0.0001323
Mean motion
15.34384867 rev/d
Perigee alt
461.8 km
Apogee alt
463.7 km
Semi-major
6,840.9 km
B*
-9.3878e-6
RAAN
210.4092°
Arg perigee
86.2028°
Mean anomaly
273.9125°
Rev number
12,168

§ Raw data

STARLINK-321231 60284U 24132G   26264.12962063 -.00000693  00000+0 -93878-5 0  99902 60284  53.1588 210.4092 0001323  86.2028 273.9125 15.34384867121681

JSON: /api/v1/satellites/60284 · /tle

For live sub-satellite position, see the globe view (requires WebGL).

§ Visibility from observer

Set your observer location to see the next 7 days of passes ≥ 10°. The values pass through the URL so the page stays shareable.

No JS? Fill the form by hand. The geolocation button needs JavaScript.